Погода в Рио-Куарто

Аргентина     33°07′28″S   64°21′07″W
темп.,
°C
ветер,
м/с
пор.,
м/с
влажн.,
%
обл.,
%
осадки,
мм/ч
давл.,
гПа
погр.,
м
13 мая, чт
чт1300:00+10с485880 0.0 1018126
03:00+9с3462100 0.0 101849
06:00+9ссз3464100 0.0 101754
09:00+10ссз2358100 0.0 101873
12:00+18сз2336100 0.0 1019588
15:00+22ссв44310 0.0 10161380
18:00+18св48410 0.0 1016167
21:00+12с411510 0.0 1019240
14 мая, пт
пт1400:00+10с410550 0.0 1020174
03:00+9с49600 0.0 1019147
06:00+9ссз356158 0.0 101867
09:00+11ссз235243 0.0 101952
12:00+19ссв34315 0.0 1018689
15:00+21ссв66295 0.0 10151201
18:00+17св584239 0.0 1015204
21:00+13ссв41156100 0.0 1017244
15 мая, сб
сб1500:00+11с410632 0.0 1018178
03:00+11с41063100 0.0 1017189
06:00+10с3565100 0.0 101782
09:00+12зсз116471 0.0 101837
12:00+18вюв2244100 0.0 1018547
15:00+21в2138100 0.0 10151121
18:00+18всв3448100 0.0 101644
21:00+14ссв365579 0.0 1018117
16 мая, вс
вс1600:00+12с34644 0.0 101963
03:00+11сз22694 0.0 101917
06:00+11з22685 0.0 101811
09:00+12зюз2366100 0.0 102051
12:00+19ююв11452 0.0 1020509
15:00+22ююв22370 0.0 10181193
18:00+18юв33483 0.0 101836
21:00+13в2268100 0.0 102113
17 мая, пн
пн1700:00+12ссз1174100 0.0 102210
03:00+12ссз1278100 0.0 102110
06:00+11св11845 0.0 102110
09:00+12св23805 0.0 102388
12:00+18св44565 0.0 1022706
15:00+21св55475 0.0 10191138
18:00+18всв4856100 0.0 1018197
21:00+14ссв511735 0.0 1019252